Starlink 11575

operational
NORAD ID: 63308 Int'l Des: 2025-057 Owner: SPXS Country: US Constellation: starlink
LEOCIRCULAR

About Starlink 11575

Description loading...

Live Position

Loading 3D Globe...

Upcoming Passes

Altitude History

Altitude vs Time

uPlot chart will show altitude changes over time

Two-Line Element Set

1 63308U 25057B 25306.43779775 .00305595 00000-0 22860-2 0 9991
2 63308 42.9996 311.6163 0003949 278.7431 81.2990 15.70967204 37166
Epoch: Nov 2, 2025 • Age: 28 hours

Current Status

Altitude 359.6 km
Velocity 7.70 km/s
Sub-Earth Point 42.46°N, 148.36°E
Launch Date Mar 18, 2025
Age 0.6 years
Type internet

Technical Details

Classification Payload
Mass 960.00 kg
Dry Mass 910.00 kg
Total Mass 960.00 kg
Length 0.30 m
Diameter 4.10 m
Span 29.00 m
Shape Box + pan
Manufacturer SPXS
Bus Type Starlink V2MD
Phase Status In Orbit
Owner/State SPXS/US

Large Constellations

Loading constellations...